Regional Weather Roundup
Issued by NWS

Home | Current Version | Previous Version | Text Only | Print | Product List | Glossary On
Versions: 1 2 3 4 5 6 7 8 9 10 11 12 13 14 15 16 17 18 19 20 21 22 23 24 25 26 27
000
ASUS45 KSLC 201610
RWRUT

UTAH REGIONAL WEATHER ROUNDUP
NATIONAL WEATHER SERVICE SALT LAKE CITY UT
1000 AM MDT SUN APR 20 2014

UTZ001>011-023>025-201700-

NORTHERN UTAH

CITY           SKY/WX    TMP DP  RH WIND       PRES   REMARKS
HILL AFB       MOSUNNY   56  29  36 VRB5      30.16R
LOGAN          MOSUNNY   55  36  48 CALM      30.16R
OGDEN          SUNNY     59  32  36 NW8       30.14R
PROVO AIRPORT  MOSUNNY   57  45  62 W3        30.16R
SALT LAKE CITY MOSUNNY   61  32  33 NW9       30.14R
VERNAL         SUNNY     55  39  54 E3        30.15S
WENDOVER       SUNNY     61  25  25 NW15      30.17S
HEBER CITY     MOSUNNY   52  34  50 CALM      30.16F
WEST JORDAN    SUNNY     59  39  47 NW16      30.16R

$$

UTZ012>022-026-027-201700-

SOUTHERN UTAH

CITY           SKY/WX    TMP DP  RH WIND       PRES   REMARKS
BRYCE CANYON   SUNNY     57  32  38 W13G18    30.25F
CEDAR CITY     SUNNY     60  34  37 CALM      30.16S
MILFORD        MOSUNNY   63  33  32 S15       30.13S
MOAB/CYNLANDS  SUNNY     60  41  49 CALM      30.12R
PRICE          MOSUNNY   57  35  43 S3        30.16S
ST GEORGE      MOSUNNY   66  37  34 CALM      30.11S

$$

REGIONAL REPORTS     COLORADO/ARIZONA

CITY           SKY/WX    TMP DP  RH WIND       PRES   REMARKS
CRAIG, CO      SUNNY     55  39  54 NE6       30.17F
GRAND JUNCTION SUNNY     57  41  55 S7        30.14S
RIFLE          SUNNY     52  38  58 CALM      30.17F
MONTROSE       SUNNY     55  41  59 CALM      30.19S
CORTEZ         SUNNY     59  39  47 SE5       30.16F
PAGE, AZ       MOSUNNY   65  36  34 E5        30.14R
GRAND CANYON   SUNNY     58  37  45 VRB5      30.25S
KINGMAN        SUNNY     71  37  28 SW3       30.12R
FLAGSTAFF      SUNNY     56  35  45 VRB6      30.25S

$$

REGIONAL REPORTS    NEVADA/IDAHO/WYOMING

CITY           SKY/WX    TMP DP  RH WIND       PRES   REMARKS
LAS VEGAS, NV  MOSUNNY   73  36  25 SW7       30.01R
ELY            MOSUNNY   53  33  46 S6        30.22R
ELKO           SUNNY     51  26  37 SW3       30.24R
POCATELLO, ID  SUNNY     52  24  33 SW24G32   30.22R
BURLEY         SUNNY     49  28  44 W21G36    30.21R
EVANSTON, WY   MOSUNNY   53  33  46 SW6       30.20R
ROCK SPRINGS   MOSUNNY   57  30  35 W9        30.17R

$$



USA.gov is the U.S. government's official web portal to all federal, state and local government web resources and services.